Location: Chateh
(58.6667°N, 118.6000°W)
Time: 11:18:19
(UTC+00:00)

PCSat - Pass Details

Date: 09 December 2023
Orbit: 784 x 791 km, 67.0° (Epoch: 01 March)

Event Time Altitude Azimuth Distance (km) Brightness Sun altitude
Exits shadow 15:29:21 - 292° (WNW) 2,521 11.5 -7.1°
Reaches altitude 10° 15:29:49 10° 294° (WNW) 2,360 11.4 -7.1°
Maximum altitude 15:34:44 34° 360° (N) 1,283 10.4 -6.5°
Drops below altitude 10° 15:39:40 10° 65° (ENE) 2,365 12.5 -6.0°
Sets 15:42:19 0° 75° (ENE) 3,295 13.4 -5.7°
